Погода в Малой Бугульме

Россия / Республика Татарстан     54°30′38″N   52°53′02″E
темп.,
°C
ветер,
м/с
пор.,
м/с
влажн.,
%
обл.,
%
осадки,
мм/ч
давл.,
гПа
погр.,
м
22 апреля, чт
чт2200:00+4ю71577100 0.5 1027949
03:00+2ю71596100 3.3 1028724
06:00+3ю71496100 0.9 1028720
09:00+5ю51278100 0.9 1028653
12:00+7ю61166100 0.0 1028814
15:00+5ююв61283100 0.1 1028676
18:00+5ю61175100 0.0 1028689
21:00+4ю61088100 0.0 1028566
23 апреля, пт
пт2300:00+3ю5994100 0.0 1028527
03:00+3ююв3798100 0.0 1029277
06:00+3ююв2597100 0.0 1029233
09:00+6ююв4682100 0.0 1029556
12:00+11юв446087 0.0 10271081
15:00+12юв5552100 0.0 10251388
18:00+10вюв3763100 0.0 1024231
21:00+8вюв3877100 0.0 1023305
24 апреля, сб
сб2400:00+7юв4592100 0.8 1021914
03:00+6в4995100 2.8 10191027
06:00+6вюв5993100 1.5 10171130
09:00+6юв5889100 2.1 10151138
12:00+5вюв4896100 0.6 1014827
15:00+5юв4692100 1.0 1013880
18:00+5ююв4794100 0.1 1013515
21:00+5ююв279799 0.2 1012342
25 апреля, вс
вс2500:00+5юв2798100 0.0 1011244
03:00+6ююв51293100 0.5 1009506
06:00+6юз6128788 3.1 1009700
09:00+8зюз810648 3.3 10101248
12:00+7юз8127217 0.6 10111289
15:00+8зюз91363100 0.9 10131619
18:00+6з597570 0.3 1015793
21:00+5зюз512805 0.3 1017476
26 апреля, пн
пн2600:00+3юз511875 0.0 1018349
03:00+2зюз49914 0.0 1019236
06:00+3юз47791 0.0 1020262
09:00+8зюз46501 0.0 10201175
12:00+10зюз443888 0.0 10191821
15:00+11ююз3338100 0.0 10181872
18:00+9ююв2452100 0.0 1017116
21:00+7юв1154100 0.0 101510